| time (UTC) | temp F | wind direction | speed knots | gust knots | rain 1hr in | rain 24hr in | rain mn in | humidity % | barometer mb |
| 20260503193056 | 77 | 34 | 2.6 | 6.1 | 0.00 | 0.00 | 0.00 | 56 | 1012.6 |
| 20260503191604 | 76 | 46 | 2.6 | 7.0 | 0.00 | 0.00 | 0.00 | 54 | 1012.8 |
| 20260503190056 | 75 | 52 | 1.7 | 6.1 | 0.00 | 0.00 | 0.00 | 56 | 1012.7 |
| 20260503184628 | 75 | 49 | 1.7 | 7.8 | 0.00 | 0.00 | 0.00 | 60 | 1013.1 |
| 20260503183105 | 74 | 4 | 1.7 | 5.2 | 0.00 | 0.00 | 0.00 | 61 | 1013.2 |
| 20260503181554 | 73 | 40 | 1.7 | 6.1 | 0.00 | 0.00 | 0.00 | 60 | 1013.3 |
| 20260503180057 | 72 | 6 | 2.6 | 5.2 | 0.00 | 0.00 | 0.00 | 62 | 1013.5 |
| 20260503174610 | 71 | 6 | 1.7 | 6.1 | 0.00 | 0.00 | 0.00 | 63 | 1013.6 |
| 20260503173131 | 71 | 51 | 1.7 | 5.2 | 0.00 | 0.00 | 0.00 | 64 | 1013.6 |
| 20260503171553 | 69 | 60 | 2.6 | 7.8 | 0.00 | 0.00 | 0.00 | 65 | 1013.6 |
| 20260503100105 | 52 | 161 | 0.0 | 0.9 | 0.00 | 0.00 | 0.00 | 94 | 1014.3 |
| 20260503090105 | 54 | 195 | 0.0 | 1.7 | 0.00 | 0.00 | 0.00 | 92 | 1014.4 |
| 20260503081559 | 54 | 245 | 0.9 | 1.7 | 0.00 | 0.00 | 0.00 | 91 | 1014.5 |
| 20260503071610 | 56 | 159 | 0.0 | 0.9 | 0.00 | 0.00 | 0.00 | 89 | 1014.4 |
| 20260503070113 | 55 | 0 | 0.0 | 0.9 | 0.00 | 0.00 | 0.00 | 89 | 1014.4 |
| 20260503060114 | 57 | 179 | 0.0 | 1.7 | 0.00 | 0.00 | 0.00 | 85 | 1014.3 |
| 20260503054559 | 57 | 144 | 0.0 | 0.9 | 0.00 | 0.00 | 0.00 | 86 | 1014.2 |
| 20260503053056 | 57 | 0 | 0.0 | 0.0 | 0.00 | 0.00 | 0.00 | 86 | 1014.3 |
| 20260503051555 | 58 | 0 | 0.0 | 0.0 | 0.00 | 0.00 | 0.00 | 82 | 1014.2 |
| 20260503044554 | 60 | 0 | 0.0 | 0.9 | 0.00 | 0.00 | 0.00 | 80 | 1013.9 |
| 20260503043054 | 61 | 120 | 0.0 | 0.9 | 0.00 | 0.00 | 0.00 | 79 | 1013.9 |
| 20260503041557 | 62 | 120 | 0.0 | 0.9 | 0.00 | 0.00 | 0.00 | 77 | 1013.6 |
| 20260503040059 | 65 | 0 | 0.0 | 0.9 | 0.00 | 0.00 | 0.00 | 72 | 1013.3 |
| 20260503034557 | 67 | 4 | 0.0 | 2.6 | 0.00 | 0.00 | 0.00 | 64 | 1013.1 |
| 20260503033059 | 67 | 0 | 0.0 | 3.5 | 0.00 | 0.00 | 0.00 | 64 | 1012.8 |
| 20260503031553 | 68 | 221 | 0.0 | 2.6 | 0.00 | 0.00 | 0.00 | 61 | 1012.5 |
| 20260503030053 | 69 | 278 | 0.0 | 1.7 | 0.00 | 0.00 | 0.00 | 59 | 1012.4 |
| 20260503024553 | 71 | 307 | 0.0 | 0.9 | 0.00 | 0.00 | 0.00 | 58 | 1012.3 |
| 20260503023054 | 72 | 0 | 0.0 | 4.3 | 0.00 | 0.00 | 0.00 | 56 | 1012.2 |
| 20260503021555 | 75 | 267 | 0.0 | 1.7 | 0.00 | 0.00 | 0.00 | 53 | 1012.2 |
| 20260503020053 | 75 | 328 | 0.9 | 3.5 | 0.00 | 0.00 | 0.00 | 53 | 1012.2 |
| 20260503014614 | 75 | 323 | 0.9 | 4.3 | 0.00 | 0.00 | 0.00 | 52 | 1012.2 |
| 20260503013054 | 76 | 12 | 1.7 | 3.5 | 0.00 | 0.00 | 0.00 | 52 | 1012.2 |
| 20260503011617 | 76 | 330 | 1.7 | 5.2 | 0.00 | 0.00 | 0.00 | 51 | 1012.3 |
| 20260503010053 | 76 | 330 | 1.7 | 4.3 | 0.00 | 0.00 | 0.00 | 50 | 1012.2 |
| 20260503004615 | 76 | 285 | 0.9 | 3.5 | 0.00 | 0.00 | 0.00 | 51 | 1012.4 |
| 20260503003058 | 76 | 259 | 0.9 | 7.0 | 0.00 | 0.00 | 0.00 | 54 | 1012.5 |
| 20260503001555 | 75 | 23 | 1.7 | 5.2 | 0.00 | 0.00 | 0.00 | 54 | 1012.6 |
| 20260503000053 | 75 | 339 | 1.7 | 5.2 | 0.00 | 0.00 | 0.00 | 56 | 1012.7 |
| 20260502234614 | 75 | 270 | 0.9 | 6.1 | 0.00 | 0.00 | 0.00 | 55 | 1012.9 |
| 20260502233058 | 75 | 28 | 2.6 | 6.1 | 0.00 | 0.00 | 0.00 | 57 | 1013.1 |
| 20260502231556 | 75 | 2 | 1.7 | 7.0 | 0.00 | 0.00 | 0.00 | 58 | 1013.3 |
| 20260502224613 | 74 | 326 | 3.5 | 8.7 | 0.00 | 0.00 | 0.00 | 57 | 1013.7 |
| 20260502223112 | 74 | 319 | 1.7 | 6.1 | 0.00 | 0.00 | 0.00 | 58 | 1013.9 |
| 20260502221558 | 74 | 287 | 1.7 | 7.0 | 0.00 | 0.00 | 0.00 | 61 | 1014.0 |
| 20260502214559 | 73 | 335 | 3.5 | 5.2 | 0.00 | 0.00 | 0.00 | 59 | 1014.3 |
| 20260502213055 | 73 | 27 | 3.5 | 7.8 | 0.00 | 0.00 | 0.00 | 63 | 1014.4 |
| 20260502211557 | 72 | 272 | 1.7 | 6.1 | 0.00 | 0.00 | 0.00 | 62 | 1014.6 |
| 20260502210055 | 72 | 38 | 0.9 | 5.2 | 0.00 | 0.00 | 0.00 | 64 | 1014.8 |
| 20260502204600 | 71 | 11 | 0.9 | 7.0 | 0.00 | 0.00 | 0.00 | 63 | 1015.0 |
| 20260502203118 | 71 | 72 | 2.6 | 9.6 | 0.00 | 0.00 | 0.00 | 63 | 1015.0 |
| 20260502201604 | 70 | 349 | 2.6 | 7.0 | 0.00 | 0.00 | 0.00 | 65 | 1015.1 |
| 20260502200059 | 70 | 157 | 0.9 | 3.5 | 0.00 | 0.00 | 0.00 | 65 | 1015.4 |
| 20260502194559 | 68 | 174 | 0.9 | 2.6 | 0.00 | 0.00 | 0.00 | 70 | 1015.6 |